Location: Poughquag
(41.6090°N, 73.6820°W)
Time: 11:17:35
(UTC-04:00)

Transit 2A Rocket - Pass Details

Date: 04 June 2020
Orbit: 584 x 919 km, 66.7° (Epoch: 06 July)

Event Time Altitude Azimuth Distance (km) Brightness Sun altitude
Rises 07:23:21 0° 326° (NNW) 3,529 8.2 20.2°
Reaches altitude 10° 07:25:52 10° 324° (NW) 2,604 7.6 20.6°
Maximum altitude 07:31:55 64° 245° (WSW) 1,013 5.7 21.7°
Drops below altitude 10° 07:37:53 10° 165° (SSE) 2,574 7.9 22.8°
Sets 07:40:22 0° 162° (SSE) 3,485 8.5 23.3°
